Location: Lane
(33.5226°N, 79.8788°W)
Time: 04:04:42
(UTC+00:00)

Explorer 7 - Pass Details

Date: 08 October 2022
Orbit: 481 x 665 km, 50.3° (Epoch: 01 December)

Event Time Altitude Azimuth Distance (km) Brightness Sun altitude
Rises 14:46:30 0° 270° (W) 2,977 10.2 38.3°
Reaches altitude 10° 14:49:22 10° 287° (WNW) 2,080 9.4 38.7°
Maximum altitude 14:52:58 21° 335° (NNW) 1,507 8.8 39.3°
Drops below altitude 10° 14:56:35 10° 23° (NNE) 2,085 9.7 39.8°
Sets 14:59:28 0° 40° (NE) 2,986 10.5 40.2°
